Location: Asheville, NC
(35.6000°N, 82.5500°W)
Time: 15:03:07
(UTC-04:00)

HO-68 - Pass Details

Date: 03 January 2018
Orbit: 1193 x 1204 km, 100.1° (Epoch: 14 August)

Event Time Altitude Azimuth Distance (km) Brightness Sun altitude
Rises 20:43:12 0° 223° (SW) 4,093 ? -38.5°
Reaches altitude 10° 20:49:16 10° 263° (W) 3,133 ? -39.8°
Maximum altitude 20:50:13 10° 271° (W) 3,114 ? -40.0°
Drops below altitude 10° 20:51:09 10° 279° (W) 3,135 ? -40.2°
Sets 20:57:18 0° 319° (NW) 4,103 ? -41.4°
